sat.trackr.live / text

‹ back to catalog

STARLINK-32689

NORAD 62440 · 2024-251J

PAYLOAD ACTIVE UNKNOWN

§ Identity

Operator
Country
US
Launch date
2024-12-29
Launch site
AFWTR
Launch vehicle
Mass (kg)
RCS (m²)

Purposes: comms

External: N2YO · Heavens-Above · Gunter

§ Orbital elements

Epoch: 2026-05-24T20:24:07.535808Z

Period
94.10 min
Inclination
53.1596°
Eccentricity
0.0000882
Mean motion
15.30209099 rev/d
Perigee alt
474.6 km
Apogee alt
475.8 km
Semi-major
6,853.3 km
B*
5.1491e-4
RAAN
341.2098°
Arg perigee
88.8891°
Mean anomaly
271.2211°
Rev number
7,961

§ Raw data

STARLINK-326891 62440U 24251J   26144.85008722  .00014926  00000+0  51491-3 0  99932 62440  53.1596 341.2098 0000882  88.8891 271.2211 15.30209099 79611

JSON: /api/v1/satellites/62440 · /tle

For live sub-satellite position, see the globe view (requires WebGL).

§ Visibility from observer

Set your observer location to see the next 7 days of passes ≥ 10°. The values pass through the URL so the page stays shareable.

No JS? Fill the form by hand. The geolocation button needs JavaScript.